Location: West Sayville
(40.7279°N, 73.0976°W)
Time: 05:25:00
(UTC+00:00)

CSL-04 Rocket - Pass Details

Date: 29 October 2020
Orbit: 805 x 861 km, 98.9° (Epoch: 27 November)

Event Time Altitude Azimuth Distance (km) Brightness Sun altitude
Exits shadow 23:39:10 11° 153° (SSE) 2,442 5.8 -20.9°
Maximum altitude 23:44:32 66° 73° (ENE) 932 3.6 -21.9°
Drops below altitude 10° 23:50:00 10° 352° (N) 2,483 6.2 -22.9°
Sets 23:52:22 0° 350° (N) 3,415 7.0 -23.4°
